Location: Pine Creek
(45.5072°N, 110.5649°W)
Time: 21:51:38
(UTC+00:00)

X-37B - Visible Passes

Search period start: 22 January 2022 00:00
Search period end: 01 February 2022 00:00
Orbit: 334 x 337 km, 45.0° (Epoch: 11 January)

Date Brightness Start Highest point End Pass type
(mag) Time Alt. Az. Time Alt. Az. Time Alt. Az.
26 Jan 3.1 02:07:19 10° S 02:07:37 11° S 02:07:37 11° S visible
27 Jan 2.9 02:26:34 10° SW 02:27:26 16° SSW 02:27:26 16° SSW visible
28 Jan 2.7 01:12:47 10° S 01:14:18 14° SSE 01:15:50 10° ESE visible
28 Jan 3.4 02:46:35 10° WSW 02:47:10 15° WSW 02:47:10 15° WSW visible
29 Jan 1.7 01:32:00 10° SW 01:34:29 27° SSE 01:35:38 20° ESE visible
30 Jan 0.7 01:52:01 10° WSW 01:54:47 50° SSE 01:55:16 43° SE visible
31 Jan 0.6 02:12:20 10° WSW 02:14:53 65° SW 02:14:53 65° SW visible
